Beckley, WV

8:11 PM EDT on October 20, 2017 (GMT -0400)
Raleigh County Memorial

Weather History for KBKW - January, 2013

Change the Weather History Date:

Monday, January 14, 2013

  Actual Average Record
Temperature  
Mean Temperature 46 °F 31 °F  
Max Temperature 58 °F 39 °F 72 °F (1932)
Min Temperature 33 °F 23 °F 0 °F (1997)
Degree Days  
Heating Degree Days 19 34  
Month to date heating degree days 353 476  
Since 1 July heating degree days 2375 2569  
Cooling Degree Days 0 0  
Month to date cooling degree days 0 0  
Year to date cooling degree days 0 0  
Moisture  
Dew Point 40 °F    
Average Humidity 93    
Maximum Humidity 100    
Minimum Humidity 86    
Precipitation  
Precipitation 0.53 in 0.09 in 1.22 in (1907)
Month to date precipitation 1.00 1.28  
Year to date precipitation 1.00 1.28  
Snow  
Snow 0.00 in - - ()
Month to date snowfall 0.2  
Since 1 September snowfall 38.4  
Snow Depth 0.00 in    
Sea Level Pressure  
Sea Level Pressure 30.19 in    
Wind  
Wind Speed 8 mph (NNW)    
Max Wind Speed 18 mph    
Max Gust Speed 25 mph    
Visibility 5 miles    
Events Fog , Rain    
T = Trace of Precipitation, MM = Missing Value Source: NWS Daily Summary

Daily Weather History Graph

Daily Weather History Graph

Search for Another Location

Airport or City:

Trip Planner

Search our weather history database for the weather conditions in past years. The results will help you decide how hot, cold, wet, or windy it might be!

Date:

Astronomy

Jan. 14, 2013 Rise Set
Actual Time 7:38 AM EST 5:28 PM EST
Civil Twilight 7:10 AM EST 5:57 PM EST
Nautical Twilight 6:37 AM EST 6:29 PM EST
Astronomical Twilight 6:06 AM EST 7:01 PM EST
Moon 9:16 AM EST (1/14) 9:07 PM EST (1/14)
Length of Visible Light 10h 47m
Length of Day
9h 49m
Waxing Crescent, 11% of the Moon is Illuminated
Jan 14
Waxing Crescent
Jan 18
First Quarter
Jan 26
Full
Feb 3
Last Quarter
Feb 10
New

Hourly Weather History & Observations

Time (EST) Temp. Windchill Dew Point Humidity Pressure Visibility Wind Dir Wind Speed Gust Speed Precip Events Conditions
12:51 AM 55.9 °F - 54.0 °F 93% 29.99 in 10.0 mi South 12.7 mph 19.6 mph 0.05 in Rain Light Rain
1:51 AM 57.9 °F - 54.0 °F 87% 29.99 in 9.0 mi SSW 13.8 mph 25.3 mph 0.02 in Rain Light Rain
2:46 AM 57.2 °F - 53.6 °F 88% 30.07 in 10.0 mi SW 9.2 mph - 0.02 in Rain Light Rain
2:51 AM 57.9 °F - 54.0 °F 87% 30.01 in 10.0 mi SW 11.5 mph - 0.02 in   Mostly Cloudy
3:15 AM 57.2 °F - 53.6 °F 88% 30.06 in 10.0 mi WSW 9.2 mph - 0.00 in Rain Light Rain
3:42 AM 55.4 °F - 51.8 °F 88% 30.07 in 10.0 mi NNW 15.0 mph 20.7 mph 0.00 in Rain Light Rain
3:51 AM 53.1 °F - 51.1 °F 93% 30.02 in 10.0 mi NNW 9.2 mph - 0.00 in Rain Light Rain
4:51 AM 45.0 °F 38.5 °F 43.0 °F 93% 30.09 in 4.0 mi NNW 13.8 mph - 0.00 in   Overcast
5:51 AM 42.1 °F 36.6 °F 39.9 °F 92% 30.14 in 7.0 mi North 9.2 mph - 0.01 in   Overcast
6:24 AM 42.8 °F 38.0 °F 39.2 °F 87% 30.16 in 6.0 mi NNW 8.1 mph - N/A   Overcast
6:51 AM 41.0 °F 35.8 °F 39.9 °F 96% 30.16 in 8.0 mi North 8.1 mph - N/A   Overcast
7:51 AM 41.0 °F 35.2 °F 39.0 °F 93% 30.18 in 10.0 mi North 9.2 mph - N/A   Overcast
8:51 AM 41.0 °F 37.1 °F 39.0 °F 93% 30.21 in 4.0 mi NNW 5.8 mph - N/A   Overcast
9:36 AM 41.0 °F 36.4 °F 39.2 °F 93% 30.22 in 1.5 mi North 6.9 mph - N/A   Overcast
9:44 AM 41.0 °F 35.8 °F 39.2 °F 93% 30.22 in 0.5 mi North 8.1 mph - N/A Fog Fog
9:51 AM 39.2 °F 35.0 °F 39.2 °F 100% 30.23 in 0.5 mi North 5.8 mph - N/A Fog Fog
9:59 AM 39.2 °F 34.2 °F 39.2 °F 100% 30.22 in 0.2 mi North 6.9 mph - N/A Fog Fog
10:41 AM 39.2 °F 35.9 °F 39.2 °F 100% 30.21 in 0.5 mi NNE 4.6 mph - N/A Fog Fog
10:49 AM 39.2 °F 34.2 °F 39.2 °F 100% 30.22 in 0.2 mi North 6.9 mph - N/A Fog Fog
10:51 AM 39.9 °F 34.5 °F 39.0 °F 97% 30.22 in 0.2 mi North 8.1 mph - N/A Fog Fog
11:03 AM 39.2 °F 34.2 °F 39.2 °F 100% 30.22 in 0.2 mi North 6.9 mph - N/A Fog Fog
11:51 AM 39.0 °F 35.7 °F 37.9 °F 96% 30.22 in 0.2 mi NW 4.6 mph - 0.00 in Fog , Rain Light Rain
12:51 PM 39.0 °F 34.8 °F 37.9 °F 96% 30.17 in 0.2 mi North 5.8 mph - 0.00 in Fog Fog
1:51 PM 37.9 °F 34.4 °F 37.0 °F 97% 30.15 in 0.2 mi North 4.6 mph - N/A Fog Fog
2:51 PM 37.9 °F 34.4 °F 37.0 °F 97% 30.15 in 0.2 mi North 4.6 mph - N/A Fog Fog
3:51 PM 37.9 °F 35.5 °F 37.0 °F 97% 30.17 in 0.2 mi North 3.5 mph - N/A Fog Fog
4:51 PM 37.9 °F 31.5 °F 37.0 °F 97% 30.22 in 0.2 mi North 9.2 mph - 0.00 in Fog Fog
5:31 PM 37.4 °F 32.1 °F 37.4 °F 100% 30.23 in 0.5 mi NNW 6.9 mph - 0.04 in Fog , Rain Heavy Rain
5:39 PM 37.4 °F 30.8 °F 35.6 °F 93% 30.24 in 2.5 mi NNW 9.2 mph - 0.07 in Rain Rain
5:46 PM 37.4 °F 30.3 °F 35.6 °F 93% 30.24 in 5.0 mi North 10.4 mph - 0.08 in Rain Rain
5:51 PM 37.0 °F 28.9 °F 35.1 °F 93% 30.29 in 5.0 mi North 12.7 mph - 0.10 in Rain Rain
6:16 PM 35.6 °F 27.5 °F 33.8 °F 93% 30.25 in 7.0 mi North 11.5 mph - 0.05 in Rain Rain
6:30 PM 35.6 °F 27.5 °F 33.8 °F 93% 30.25 in 8.0 mi North 11.5 mph - 0.07 in Rain Rain
6:51 PM 35.1 °F 27.4 °F 34.0 °F 96% 30.32 in 10.0 mi North 10.4 mph - 0.09 in Rain Light Rain
7:51 PM 34.0 °F 25.5 °F 33.1 °F 96% 30.32 in 10.0 mi North 11.5 mph - 0.02 in Rain Light Rain
7:59 PM 33.8 °F 23.9 °F 33.8 °F 100% 30.26 in 10.0 mi North 15.0 mph - 0.00 in Rain Light Rain
8:37 PM 33.8 °F 25.8 °F 32.0 °F 93% 30.27 in 10.0 mi North 10.4 mph - 0.00 in Rain Light Rain
8:51 PM 34.0 °F 26.6 °F 32.0 °F 92% 30.35 in 7.0 mi NNW 9.2 mph - 0.01 in Rain Rain
9:40 PM 33.8 °F 30.8 °F 32.0 °F 93% 30.28 in 6.0 mi North 3.5 mph - 0.08 in Rain Rain
9:51 PM 33.8 °F - 32.0 °F 93% 30.27 in 6.0 mi Calm Calm - N/A Rain Rain
10:51 PM 34.0 °F 26.6 °F 32.0 °F 92% 30.25 in 7.0 mi SE 9.2 mph - 0.10 in Rain Rain
11:51 PM 37.9 °F 34.4 °F 35.1 °F 89% 30.21 in 10.0 mi SE 4.6 mph - 0.04 in Rain Light Rain